When you browse on this site, cookies collect data to enhance your experience and personalize the content and advertising you see.
Visit our Privacy Policy to learn more. By continuing to use the site, you agree to this use of cookies and data.

Hourly Weather Kaposvar

Today, 11 August, Tuesday

Time Temperature Precipitation Wind Pressure Humidity
00:00 +24°C° 0 mm 1 mps 747 mmHg 65%
01:00 +23°C° 0 mm 1 mps 747 mmHg 67%
02:00 +23°C° 0 mm 1 mps 747 mmHg 68%
03:00 +23°C° 0 mm 1 mps 747 mmHg 68%
04:00 +22°C° 0 mm 1 mps 747 mmHg 69%
05:00 +23°C° 0 mm 1 mps 747 mmHg 68%
06:00 +24°C° 0 mm 1 mps 747 mmHg 66%
07:00 +25°C° 0 mm 1 mps 748 mmHg 65%
08:00 +27°C° 0 mm 1 mps 748 mmHg 59%
09:00 +29°C° 0 mm 1 mps 748 mmHg 53%
10:00 +31°C° 0 mm 1 mps 748 mmHg 48%
11:00 +32°C° 0 mm 1 mps 748 mmHg 45%
12:00 +33°C° 0 mm 1 mps 748 mmHg 42%
13:00 +32°C° 0 mm 0 mps 748 mmHg 39%
14:00 +34°C° 0 mm 1 mps 747 mmHg 40%
15:00 +33°C° 0 mm 1 mps 747 mmHg 41%
16:00 +33°C° 0 mm 1 mps 747 mmHg 42%
17:00 +31°C° 0 mm 1 mps 747 mmHg 48%
18:00 +29°C° 0 mm 1 mps 747 mmHg 53%
19:00 +27°C° 0 mm 2 mps 746 mmHg 59%
20:00 +26°C° 0.1 mm 2 mps 747 mmHg 62%
21:00 +26°C° 0.1 mm 2 mps 747 mmHg 65%
22:00 +25°C° 0.1 mm 2 mps 747 mmHg 68%
23:00 +24°C° 0.5 mm 2 mps 747 mmHg 74%

Tomorrow, 12 August, Wednesday

Time Temperature Precipitation Wind Pressure Humidity
00:00 +23°C° 0.5 mm 2 mps 747 mmHg 79%
01:00 +21°C° 0.5 mm 2 mps 747 mmHg 84%
02:00 +21°C° 0.7 mm 2 mps 747 mmHg 86%
03:00 +21°C° 0.7 mm 2 mps 747 mmHg 87%
04:00 +21°C° 0.7 mm 2 mps 747 mmHg 88%
05:00 +21°C° 0.1 mm 2 mps 748 mmHg 87%
06:00 +23°C° 0.1 mm 2 mps 748 mmHg 86%
07:00 +24°C° 0.1 mm 2 mps 748 mmHg 84%
08:00 +25°C° 0 mm 2 mps 748 mmHg 76%
09:00 +27°C° 0 mm 2 mps 749 mmHg 68%
10:00 +28°C° 0 mm 2 mps 749 mmHg 60%
11:00 +29°C° 0.1 mm 2 mps 749 mmHg 56%
12:00 +30°C° 0.1 mm 2 mps 748 mmHg 53%
13:00 +31°C° 0.1 mm 2 mps 748 mmHg 49%
14:00 +31°C° 0 mm 2 mps 748 mmHg 48%
15:00 +31°C° 0 mm 1 mps 748 mmHg 48%
16:00 +31°C° 0 mm 1 mps 748 mmHg 47%
17:00 +30°C° 0 mm 1 mps 748 mmHg 51%
18:00 +28°C° 0 mm 1 mps 748 mmHg 56%
19:00 +26°C° 0 mm 1 mps 747 mmHg 61%
20:00 +26°C° 0 mm 1 mps 748 mmHg 61%
21:00 +25°C° 0 mm 1 mps 748 mmHg 62%
22:00 +24°C° 0 mm 1 mps 748 mmHg 62%
23:00 +24°C° 0 mm 1 mps 748 mmHg 63%

Day after tomorrow, 13 August, Thursday

Time Temperature Precipitation Wind Pressure Humidity
00:00 +23°C° 0 mm 1 mps 748 mmHg 65%
01:00 +22°C° 0 mm 1 mps 748 mmHg 66%
02:00 +22°C° 0 mm 1 mps 748 mmHg 68%
03:00 +21°C° 0 mm 1 mps 748 mmHg 70%
04:00 +21°C° 0 mm 1 mps 748 mmHg 71%
05:00 +21°C° 0 mm 2 mps 748 mmHg 69%
06:00 +23°C° 0 mm 2 mps 748 mmHg 67%
07:00 +24°C° 0 mm 2 mps 748 mmHg 65%
08:00 +26°C° 0 mm 2 mps 748 mmHg 59%
09:00 +28°C° 0 mm 3 mps 748 mmHg 53%
10:00 +30°C° 0 mm 3 mps 748 mmHg 46%
11:00 +30°C° 0 mm 3 mps 748 mmHg 43%
12:00 +31°C° 0 mm 3 mps 747 mmHg 40%
13:00 +33°C° 0 mm 3 mps 747 mmHg 36%
14:00 +33°C° 0 mm 3 mps 747 mmHg 37%
15:00 +33°C° 0 mm 3 mps 746 mmHg 37%
16:00 +33°C° 0 mm 3 mps 746 mmHg 37%
17:00 +30°C° 0 mm 3 mps 746 mmHg 43%
18:00 +28°C° 0 mm 3 mps 746 mmHg 48%
19:00 +26°C° 0 mm 3 mps 746 mmHg 54%
20:00 +26°C° 0 mm 2 mps 746 mmHg 53%
21:00 +25°C° 0 mm 2 mps 746 mmHg 53%
22:00 +24°C° 0 mm 2 mps 746 mmHg 53%
23:00 +24°C° 0.1 mm 2 mps 746 mmHg 54%

14 August, Friday

Time Temperature Precipitation Wind Pressure Humidity
00:00 +23°C° 0.1 mm 2 mps 746 mmHg 56%
01:00 +23°C° 0.1 mm 2 mps 746 mmHg 58%
02:00 +21°C° 0 mm 2 mps 746 mmHg 60%
03:00 +21°C° 0 mm 2 mps 745 mmHg 62%
04:00 +20°C° 0 mm 2 mps 745 mmHg 64%
05:00 +21°C° 0 mm 2 mps 745 mmHg 63%
06:00 +23°C° 0 mm 2 mps 745 mmHg 61%
07:00 +24°C° 0 mm 2 mps 746 mmHg 59%
08:00 +26°C° 0 mm 2 mps 746 mmHg 54%
09:00 +28°C° 0 mm 2 mps 746 mmHg 49%
10:00 +30°C° 0 mm 2 mps 746 mmHg 44%
11:00 +31°C° 0 mm 2 mps 745 mmHg 42%
12:00 +33°C° 0 mm 3 mps 745 mmHg 40%
13:00 +34°C° 0 mm 3 mps 745 mmHg 39%
14:00 +34°C° 0 mm 2 mps 744 mmHg 39%
15:00 +34°C° 0 mm 2 mps 744 mmHg 39%
16:00 +34°C° 0 mm 2 mps 743 mmHg 39%
17:00 +31°C° 0 mm 2 mps 743 mmHg 46%
18:00 +29°C° 0 mm 1 mps 743 mmHg 53%
19:00 +27°C° 0 mm 1 mps 743 mmHg 60%
20:00 +26°C° 0.7 mm 1 mps 744 mmHg 67%
21:00 +24°C° 0.7 mm 1 mps 744 mmHg 74%
22:00 +22°C° 0.7 mm 1 mps 744 mmHg 81%
23:00 +22°C° 0.2 mm 1 mps 744 mmHg 82%

15 August, Saturday

Time Temperature Precipitation Wind Pressure Humidity
00:00 +21°C° 0.2 mm 1 mps 744 mmHg 83%
01:00 +21°C° 0.2 mm 1 mps 744 mmHg 84%
02:00 +20°C° 0.1 mm 2 mps 744 mmHg 85%
03:00 +19°C° 0.1 mm 2 mps 744 mmHg 86%
04:00 +19°C° 0.1 mm 2 mps 744 mmHg 87%
05:00 +19°C° 0.2 mm 2 mps 744 mmHg 83%
06:00 +20°C° 0.2 mm 2 mps 744 mmHg 80%
07:00 +21°C° 0.2 mm 2 mps 745 mmHg 77%
08:00 +24°C° 0 mm 3 mps 745 mmHg 70%
09:00 +26°C° 0 mm 3 mps 745 mmHg 62%
10:00 +29°C° 0 mm 3 mps 745 mmHg 55%
11:00 +29°C° 0.1 mm 4 mps 745 mmHg 54%
12:00 +29°C° 0.1 mm 4 mps 745 mmHg 54%
13:00 +29°C° 0.1 mm 5 mps 745 mmHg 53%
14:00 +29°C° 0 mm 5 mps 744 mmHg 55%
15:00 +28°C° 0 mm 5 mps 744 mmHg 57%
16:00 +27°C° 0 mm 5 mps 744 mmHg 58%
17:00 +26°C° 0 mm 4 mps 744 mmHg 62%
18:00 +24°C° 0 mm 3 mps 744 mmHg 66%
19:00 +23°C° 0 mm 2 mps 744 mmHg 70%
20:00 +23°C° 0 mm 2 mps 744 mmHg 70%
21:00 +22°C° 0 mm 3 mps 744 mmHg 70%
22:00 +22°C° 0 mm 3 mps 745 mmHg 70%
23:00 +22°C° 0 mm 3 mps 745 mmHg 70%

16 August, Sunday

Time Temperature Precipitation Wind Pressure Humidity
00:00 +22°C° 0 mm 3 mps 745 mmHg 70%
01:00 +22°C° 0 mm 4 mps 745 mmHg 70%
02:00 +21°C° 0 mm 3 mps 745 mmHg 75%
03:00 +20°C° 0 mm 3 mps 745 mmHg 79%
04:00 +20°C° 0 mm 3 mps 744 mmHg 83%
05:00 +21°C° 0 mm 3 mps 745 mmHg 80%
06:00 +21°C° 0 mm 3 mps 745 mmHg 78%
07:00 +22°C° 0 mm 3 mps 745 mmHg 75%
08:00 +25°C° 0 mm 4 mps 745 mmHg 66%
09:00 +26°C° 0 mm 4 mps 745 mmHg 57%
10:00 +28°C° 0 mm 4 mps 745 mmHg 48%
11:00 +29°C° 0 mm 4 mps 745 mmHg 44%
12:00 +30°C° 0 mm 4 mps 745 mmHg 40%
13:00 +32°C° 0 mm 4 mps 745 mmHg 37%
14:00 +32°C° 0 mm 4 mps 744 mmHg 37%
15:00 +30°C° 0 mm 4 mps 744 mmHg 37%
16:00 +30°C° 0 mm 3 mps 744 mmHg 38%
17:00 +28°C° 0 mm 3 mps 744 mmHg 44%
18:00 +26°C° 0 mm 2 mps 744 mmHg 50%
19:00 +24°C° 0 mm 1 mps 744 mmHg 56%
20:00 +23°C° 0 mm 1 mps 744 mmHg 58%
21:00 +22°C° 0 mm 1 mps 744 mmHg 60%
22:00 +20°C° 0 mm 0 mps 745 mmHg 62%
23:00 +19°C° 0 mm 0 mps 744 mmHg 63%
Show more